FW1863 Weather Reports


time (UTC)temp
C
wind
direction
speed
KPH
gust
KPH
rain 1hr
cm
rain 24hr
cm
rain mn
cm
humidity
%
barometer
mb
20260506175854 18 295 1.6 8.0 0.00 0.00 0.00 64 1020.7
20260506174353 18 301 0.0 3.2 0.00 0.00 0.00 65 1020.7
20260506172852 18 186 0.0 0.0 0.00 0.00 0.00 66 1020.8
20260506171350 17 91 1.6 6.4 0.00 0.00 0.00 68 1021.0
20260506165849 16 311 0.0 1.6 0.00 0.00 0.00 69 1020.9
20260506164350 16 230 1.6 6.4 0.00 0.00 0.00 70 1020.9
20260506162853 16 139 1.6 8.0 0.00 0.00 0.00 72 1021.0
20260506162849 16 140 0.0 0.0 0.00 0.00 0.00 70 1020.9
20260506155850 15 134 1.6 6.4 0.00 0.00 0.00 74 1021.0
20260506154349 15 56 0.0 9.7 0.00 0.00 0.00 73 1021.0
20260506153622 14 124 1.6 6.4 0.00 0.00 0.00 75 1021.1
20260506151352 13 82 0.0 4.8 0.00 0.00 0.00 78 1021.2
20260506145843 13 117 0.0 4.8 0.00 0.00 0.00 80 1021.1
20260506145114 12 94 0.0 1.6 0.00 0.00 0.00 84 1021.0
20260506143615 12 68 0.0 0.0 0.00 0.00 0.00 86 1021.0
20260506141339 11 58 0.0 0.0 0.00 0.00 0.00 85 1020.8
20260506135839 11 58 0.0 0.0 0.00 0.00 0.00 85 1020.6
20260506134335 11 58 0.0 0.0 0.00 0.00 0.00 85 1020.5
20260506132835 11 58 0.0 0.0 0.00 0.00 0.00 85 1020.6
20260506131335 11 58 0.0 0.0 0.00 0.00 0.00 85 1020.4
20260506125838 11 58 0.0 0.0 0.00 0.00 0.00 85 1020.2
20260506124333 11 58 0.0 0.0 0.00 0.00 0.00 85 1020.1
20260506122833 11 58 0.0 0.0 0.00 0.00 0.00 85 1020.2
20260506121333 11 58 0.0 0.0 0.00 0.00 0.00 85 1020.0
20260506115834 11 58 0.0 0.0 0.00 0.00 0.00 85 1020.0
20260506114332 11 58 0.0 0.0 0.00 0.00 0.00 85 1019.9
20260506112831 11 58 0.0 0.0 0.00 0.00 0.00 85 1019.8
20260506111329 11 58 0.0 0.0 0.00 0.00 0.00 85 1019.7
20260506105829 11 58 0.0 0.0 0.00 0.00 0.00 85 1019.5
20260506104330 11 58 0.0 0.0 0.00 0.03 0.00 85 1019.5
20260506102829 11 58 0.0 0.0 0.00 0.03 0.00 86 1019.4
20260506101324 10 58 0.0 0.0 0.00 0.03 0.00 86 1019.3
20260506100552 10 58 0.0 0.0 0.00 0.03 0.00 86 1019.4
20260506094318 10 58 0.0 0.0 0.00 0.03 0.00 85 1019.3
20260506092815 10 58 0.0 0.0 0.00 0.03 0.00 85 1019.3
20260506091309 10 58 0.0 0.0 0.00 0.03 0.00 85 1019.4
20260506085811 10 58 0.0 0.0 0.00 0.03 0.00 85 1019.3
20260506084302 10 58 0.0 0.0 0.00 0.05 0.00 85 1019.2
20260506082802 10 300 0.0 0.0 0.00 0.05 0.00 85 1019.3
20260506082032 10 300 0.0 0.0 0.00 0.10 0.00 84 1019.4
20260506073526 10 300 0.0 0.0 0.00 0.15 0.00 83 1019.1
20260506071246 11 300 0.0 0.0 0.00 0.15 0.00 82 1019.0
20260506070517 11 300 0.0 0.0 0.00 0.20 0.18 81 1018.9
20260506061234 12 277 0.0 0.0 0.00 0.23 0.18 79 1018.5
20260506051221 13 301 0.0 9.7 0.00 0.25 0.18 76 1018.2
20260506044213 13 298 1.6 6.4 0.00 0.25 0.18 75 1017.9
20260506042714 13 301 1.6 6.4 0.00 0.25 0.18 75 1017.7
20260506041941 13 294 0.0 4.8 0.00 0.25 0.18 75 1017.5
20260506035711 14 294 0.0 4.8 0.00 0.25 0.18 74 1017.4
20260506034211 14 249 1.6 6.4 0.00 0.25 0.18 73 1017.4
20260506032706 14 253 3.2 8.0 0.00 0.25 0.18 73 1017.1
20260506031207 14 237 0.0 8.0 0.00 0.25 0.18 72 1016.8
20260506025706 14 251 0.0 6.4 0.00 0.25 0.18 72 1016.8
20260506024208 15 223 1.6 11.3 0.00 0.25 0.18 71 1016.6
20260506022706 15 259 1.6 14.5 0.00 0.25 0.18 71 1016.6
20260506021206 15 240 1.6 8.0 0.00 0.25 0.18 71 1016.4
20260506015707 15 204 4.8 12.9 0.00 0.25 0.18 71 1016.3
20260506014207 16 242 6.4 16.1 0.00 0.25 0.18 69 1016.1
20260506012706 16 247 4.8 17.7 0.00 0.25 0.18 68 1016.1
20260506011938 16 223 4.8 12.9 0.00 0.25 0.18 69 1016.1
20260506005706 16 224 3.2 12.9 0.00 0.25 0.18 68 1016.1
20260506004204 16 209 1.6 11.3 0.00 0.25 0.18 69 1015.8
20260506002704 16 225 3.2 9.7 0.00 0.25 0.18 70 1015.8
20260506001202 16 255 3.2 11.3 0.00 0.25 0.18 71 1015.7
20260506000434 16 199 4.8 12.9 0.00 0.25 0.18 71 1015.8
20260505234202 16 217 3.2 14.5 0.00 0.25 0.18 71 1015.7
20260505232659 16 212 4.8 14.5 0.00 0.25 0.18 70 1015.8
20260505231155 16 235 1.6 8.0 0.00 0.25 0.18 69 1015.9
20260505225651 16 243 1.6 6.4 0.00 0.25 0.18 71 1015.9
20260505224152 16 181 0.0 3.2 0.00 0.25 0.18 71 1015.9
20260505222644 15 182 1.6 6.4 0.00 0.25 0.18 73 1015.9
20260505221144 15 128 1.6 6.4 0.00 0.25 0.18 73 1016.0
20260505215640 15 195 1.6 8.0 0.00 0.25 0.18 73 1016.1
20260505214138 15 131 1.6 6.4 0.00 0.25 0.18 74 1016.1
20260505212632 15 210 1.6 6.4 0.00 0.25 0.18 73 1016.3
20260505211134 15 237 1.6 8.0 0.00 0.25 0.18 74 1016.3
20260505205627 15 245 1.6 8.0 0.00 0.25 0.18 75 1016.3
20260505204125 15 228 3.2 8.0 0.00 0.25 0.18 74 1016.5
20260505203353 15 244 1.6 8.0 0.00 0.25 0.18 75 1016.5
20260505201119 15 200 4.8 14.5 0.00 0.25 0.18 75 1016.6
20260505195614 15 217 4.8 16.1 0.00 0.25 0.18 75 1016.6
20260505194116 15 311 1.6 12.9 0.00 0.25 0.18 73 1016.6
20260505192610 15 221 1.6 14.5 0.00 0.25 0.18 75 1016.5
20260505191110 15 315 1.6 6.4 0.00 0.25 0.18 75 1016.5
20260505185609 14 309 1.6 8.0 0.00 0.25 0.18 76 1016.4
20260505184109 14 307 1.6 12.9 0.00 0.25 0.18 77 1016.5
20260505182610 13 316 3.2 12.9 0.00 0.25 0.18 77 1016.5
20260505181110 13 305 1.6 11.3 0.00 0.25 0.18 77 1016.5